Wind_Speed
23 23 23 23 22 21 20 18 16 15 15 14 13 14 11 13 14 15 14 17 19 20 22 24 23 17 7 15 18 21 25 29 28 26 27 26 23 20 20 22 23 23 22 17 14
30 30 30 30 29 28 27 26 24 23 20 19 18 16 17 15 15 14 14 13 16 17 20 21 23 23 15 1 14 16 16 22 22 22 22 21 20 20 19 17 13 11 11 12 11
35 34 34 34 34 34 33 32 32 30 27 24 22 20 17 17 15 16 15 14 13 14 16 19 21 22 20 7 9 14 12 17 15 14 17 17 15 15 12 10 9 9 8 6 5
36 36 36 35 35 35 34 33 33 34 34 32 27 24 21 18 19 17 18 16 14 12 13 14 18 19 21 15 4 16 12 10 10 12 13 11 12 13 11 9 9 8 5 2 4
43 43 43 42 41 40 39 38 36 34 34 32 30 29 27 22 25 19 21 20 17 14 11 12 12 14 15 17 11 9 13 8 9 13 14 17 16 12 12 13 10 5 1 3 3
46 47 47 47 47 48 46 44 43 41 39 37 34 31 27 28 30 26 26 25 21 17 13 10 10 10 12 15 14 8 4 12 13 12 17 17 15 12 12 9 6 1 1 3 1
50 50 50 49 49 49 47 48 46 44 44 42 40 37 33 30 30 30 30 28 25 20 19 14 11 8 7 9 10 8 2 6 11 15 18 18 14 9 7 5 5 6 4 7 6
52 52 54 55 55 56 55 53 50 47 48 48 46 45 42 38 34 32 29 31 29 29 28 23 17 11 6 4 7 9 10 6 2 10 14 14 10 9 11 13 12 8 11 13 17
49 50 53 55 56 57 59 58 59 58 54 51 47 47 47 45 42 38 34 32 32 32 32 29 24 16 12 6 1 1 7 10 8 7 9 16 11 15 18 18 17 17 20 19 15
36 36 37 41 43 47 50 56 60 62 61 57 56 53 51 49 48 44 41 37 34 32 33 32 29 23 17 12 8 3 3 4 8 8 7 17 20 17 17 19 22 21 17 14 13
32 31 31 32 31 34 35 39 42 47 54 58 60 57 58 57 53 50 48 44 41 36 33 38 32 31 25 18 14 10 7 5 7 5 4 4 11 14 16 19 19 18 14 14 14
37 37 34 32 32 33 30 32 33 35 38 42 48 56 59 61 59 55 53 52 47 44 39 36 36 39 31 26 23 18 14 11 9 10 7 7 7 11 14 16 17 18 19 16 15
42 43 41 35 37 37 36 37 39 36 35 34 40 38 46 56 64 62 59 57 56 50 46 40 46 45 33 31 30 26 24 20 17 14 13 11 12 9 11 12 15 17 17 16 14
44 46 47 44 43 44 45 43 40 39 38 37 36 36 39 47 50 64 66 63 60 60 55 50 49 47 41 34 36 34 31 28 23 19 18 18 17 15 14 15 15 16 16 15 14
55 52 53 52 51 52 51 50 47 46 44 37 39 43 41 43 44 52 61 67 68 66 62 58 56 53 49 46 42 43 42 35 31 27 24 19 19 19 17 17 18 19 17 15 15
61 61 59 59 60 58 57 53 53 53 48 49 46 48 46 49 46 43 52 58 70 71 68 68 64 59 54 57 50 50 49 40 36 35 30 24 23 22 20 20 22 20 21 21 19
67 67 67 69 69 64 60 59 56 51 54 54 53 57 54 52 51 48 43 52 54 72 74 75 71 67 62 61 60 56 50 46 39 36 34 31 29 27 28 24 25 25 24 24 24
72 73 73 73 75 75 70 69 63 58 61 64 61 60 61 62 56 50 53 46 44 55 76 79 76 72 69 65 64 64 57 49 48 45 43 41 35 37 33 30 26 25 27 28 27
80 80 83 82 81 82 80 75 70 72 73 70 72 71 69 69 67 60 54 57 56 49 57 76 81 83 78 73 73 67 64 54 56 54 50 44 45 48 42 33 29 30 34 33 32
86 88 88 88 91 92 89 80 78 81 83 81 77 74 73 72 72 71 64 60 62 62 53 60 81 87 84 84 78 74 72 70 59 55 50 52 51 48 48 41 37 39 40 38 36
93 94 95 97 99 98 90 87 92 91 91 86 85 84 80 80 79 77 75 71 67 66 66 61 67 85 94 85 78 77 74 75 69 64 59 58 54 54 52 45 40 47 45 44 42
101 102 101 104 106 105 100 100 102 99 101 96 94 89 90 89 87 83 78 77 75 69 71 61 67 72 88 93 91 88 84 85 83 70 62 60 57 61 62 52 47 50 50 48 48
114 113 118 113 114 115 112 110 111 110 108 106 99 100 102 99 96 88 85 84 79 74 77 74 65 69 73 93 95 92 85 84 81 81 71 67 58 67 65 61 52 49 51 53 50
124 123 128 125 124 125 125 120 119 118 116 114 112 111 109 107 102 95 91 91 85 73 80 81 72 64 63 72 92 100 97 92 90 86 78 71 71 72 67 68 61 58 60 58 56
137 136 139 139 137 139 139 136 132 129 124 121 118 116 117 113 107 101 94 96 92 81 79 82 79 71 67 71 84 98 100 100 97 90 88 80 80 74 70 71 73 65 63 64 61
138 140 133 134 141 141 142 143 142 138 137 129 124 127 125 120 118 112 106 101 93 88 81 84 79 76 66 61 77 87 98 102 102 95 93 91 85 79 79 76 73 72 71 70 66
125 123 118 128 129 129 132 129 132 131 130 130 133 131 127 131 128 123 108 102 96 92 86 85 81 81 71 66 67 84 83 94 101 101 96 94 84 89 83 76 71 79 76 74 71
Wind_Direction
257 260 265 269 272 274 277 274 274 278 292 300 307 318 330 346 351 360 15 21 24 33 32 31 32 38 190 194 207 215 223 227 236 239 242 251 259 260 267 273 274 265 256 256 254
259 262 265 268 270 271 274 276 277 279 280 287 290 300 306 316 323 332 349 5 11 18 29 29 27 33 33 215 210 203 255 223 229 235 241 248 255 261 261 259 253 245 228 232 243
265 266 267 268 268 270 271 271 273 273 273 280 283 286 290 300 307 314 324 334 351 3 17 27 28 30 36 21 234 209 235 231 231 242 244 244 246 240 235 206 185 176 174 177 198
268 267 269 269 270 270 269 269 270 270 271 273 275 275 279 284 288 295 305 314 325 337 356 20 28 26 36 34 209 211 210 215 228 229 228 221 208 186 172 168 149 138 108 158 196
268 269 269 270 268 268 269 269 268 266 269 271 270 268 267 272 274 280 289 296 305 312 330 349 24 34 30 40 40 211 201 225 238 230 218 190 182 182 179 169 165 184 348 301 262
271 270 269 267 267 266 266 265 264 265 266 264 265 265 265 261 264 273 278 283 289 296 302 320 342 22 35 41 44 49 216 244 247 221 199 190 196 187 176 178 183 155 26 319 114
271 271 271 270 268 267 268 265 261 262 262 261 263 262 260 256 257 260 264 269 277 283 289 293 302 329 24 33 54 64 95 229 236 215 204 202 207 209 197 181 150 92 87 123 133
272 271 271 270 269 268 267 265 262 262 259 258 259 260 259 258 255 257 254 258 261 270 275 281 280 282 311 25 32 55 53 65 96 223 218 217 227 204 161 139 113 118 123 126 131
274 273 273 270 269 268 267 266 264 262 257 255 255 253 253 254 253 252 252 252 253 257 264 267 269 269 271 290 338 48 78 71 86 110 154 145 138 165 135 128 126 128 128 131 136
276 273 273 274 272 269 268 266 264 263 261 257 254 251 251 252 248 245 247 250 249 250 254 257 255 259 256 253 262 241 261 125 87 111 138 143 144 141 140 135 132 134 137 139 139
280 275 271 267 271 274 272 271 271 271 264 259 256 249 249 249 249 243 241 243 247 247 243 249 251 247 249 241 247 240 229 231 149 139 209 179 158 162 156 148 147 146 148 145 138
275 277 277 271 276 280 282 284 282 278 280 272 264 254 249 246 244 244 240 237 239 243 243 245 249 247 239 242 239 238 224 222 218 180 195 229 173 172 160 157 155 153 150 149 147
278 275 271 270 277 277 280 279 286 285 288 288 273 272 261 252 243 240 241 238 235 236 240 237 239 245 239 237 242 235 233 222 218 211 199 215 216 204 188 175 168 163 160 160 162
276 274 271 268 271 276 274 277 275 282 283 285 290 287 273 263 258 243 238 237 234 232 233 235 239 244 246 239 238 241 238 231 226 218 215 215 211 224 222 218 198 186 188 189 189
272 271 270 270 268 271 275 275 274 281 281 282 283 283 278 268 264 256 244 236 235 232 229 232 234 239 241 240 235 234 239 232 227 226 225 218 227 227 226 226 220 209 207 206 208
272 272 268 269 270 271 270 269 274 278 281 282 280 278 279 281 278 265 259 247 236 234 229 229 232 234 238 242 239 235 237 233 227 228 231 227 228 232 231 225 227 223 220 219 220
272 272 272 272 271 268 268 268 272 279 278 280 279 280 277 276 279 277 269 253 249 235 233 231 228 232 232 236 242 241 237 241 234 227 233 230 232 234 233 231 229 232 233 234 233
277 277 274 271 271 270 269 268 271 272 272 275 274 276 279 278 278 278 279 255 258 252 234 231 229 231 234 235 239 241 237 233 239 239 238 237 236 240 234 234 234 239 234 240 243
273 274 273 274 271 270 268 267 269 268 268 268 270 273 275 278 278 274 273 276 275 253 251 233 230 231 232 231 233 237 236 233 231 233 235 233 237 237 237 233 235 240 243 243 250
271 271 269 268 269 269 269 269 263 264 264 266 267 267 269 271 273 274 270 272 272 273 256 251 230 230 231 230 230 234 240 239 232 234 237 237 240 242 241 237 234 236 246 248 248
276 274 271 270 269 268 268 265 261 261 263 263 264 263 263 267 268 269 272 270 269 268 271 249 239 230 231 231 232 231 236 240 239 231 231 233 236 243 246 240 235 242 242 247 251
270 269 267 267 267 266 266 264 264 263 263 261 261 260 261 263 264 265 268 267 266 264 267 252 244 236 229 230 230 231 230 233 234 234 235 235 231 237 242 241 236 240 249 248 249
274 270 268 264 264 263 261 260 259 259 259 259 258 259 258 259 260 261 263 264 261 261 261 261 252 246 233 229 230 233 233 236 238 239 232 235 231 231 240 244 242 244 248 250 251
270 267 265 263 262 262 260 257 256 256 256 255 256 256 256 257 257 256 261 261 260 261 258 259 260 250 241 231 229 228 230 229 232 234 237 235 234 235 235 241 242 238 244 249 251
272 270 269 268 265 265 263 261 259 257 253 252 253 255 257 255 255 254 254 257 257 256 257 257 258 255 244 239 232 228 229 231 231 232 234 234 235 235 235 237 242 240 241 246 250
278 276 272 272 269 268 267 266 262 258 256 255 250 250 252 256 256 254 253 253 254 254 255 254 255 256 246 244 239 232 228 230 231 230 232 233 234 234 234 234 241 244 241 242 245
280 277 275 270 269 269 268 265 261 259 258 255 252 249 250 251 252 256 257 255 252 251 251 252 253 252 250 250 242 233 230 231 232 231 231 234 236 238 236 235 237 244 248 247 245
Height
10989 10989 10989 10990 10990 10991 10991 10991 10992 10992 10991 10991 10990 10989 10989 10988 10986 10985 10984 10981 10978 10975 10972 10968 10965 10963 10963 10964 10964 10966 10969 10971 10971 10973 10974 10976 10977 10978 10978 10977 10977 10977 10977 10977 10977
10984 10985 10985 10986 10986 10987 10987 10988 10989 10989 10989 10990 10989 10989 10988 10988 10986 10985 10984 10983 10980 10977 10974 10970 10967 10964 10961 10961 10963 10966 10972 10968 10969 10970 10971 10973 10974 10974 10974 10975 10974 10974 10974 10975 10975
10979 10980 10980 10980 10980 10981 10982 10983 10984 10984 10985 10987 10987 10987 10988 10987 10987 10984 10984 10982 10981 10979 10976 10972 10968 10965 10963 10961 10960 10965 10975 10967 10967 10968 10969 10970 10970 10971 10971 10972 10972 10972 10972 10972 10973
10973 10974 10974 10974 10974 10974 10975 10977 10978 10978 10979 10981 10983 10984 10985 10985 10985 10984 10982 10982 10981 10980 10977 10975 10971 10967 10964 10962 10961 10962 10964 10965 10966 10967 10967 10967 10968 10969 10970 10971 10971 10972 10972 10972 10973
10965 10965 10966 10966 10967 10967 10968 10969 10971 10972 10972 10975 10977 10980 10981 10983 10980 10982 10981 10980 10979 10979 10978 10976 10975 10972 10968 10964 10961 10961 10963 10964 10965 10965 10965 10966 10968 10969 10968 10969 10970 10970 10970 10971 10971
10955 10954 10955 10956 10957 10957 10959 10960 10962 10964 10966 10967 10969 10973 10975 10977 10976 10978 10978 10977 10978 10977 10977 10976 10974 10973 10971 10967 10964 10963 10964 10964 10964 10964 10965 10967 10969 10969 10969 10968 10968 10968 10968 10968 10970
10943 10943 10944 10945 10946 10945 10946 10949 10951 10955 10957 10960 10962 10965 10968 10969 10970 10972 10974 10974 10975 10975 10975 10975 10974 10973 10972 10970 10968 10965 10964 10963 10963 10964 10965 10967 10969 10968 10967 10966 10966 10966 10968 10969 10971
10932 10932 10931 10932 10934 10934 10935 10937 10939 10943 10947 10949 10953 10955 10958 10961 10965 10965 10968 10969 10970 10971 10972 10973 10973 10973 10973 10971 10969 10966 10964 10963 10963 10964 10965 10968 10971 10969 10967 10965 10965 10967 10968 10970 10973
10922 10921 10919 10919 10920 10921 10921 10923 10924 10928 10934 10938 10942 10944 10946 10950 10954 10958 10961 10962 10965 10965 10967 10969 10970 10971 10971 10972 10970 10970 10968 10966 10965 10965 10967 10970 10977 10973 10967 10965 10965 10968 10970 10973 10975
10912 10912 10910 10908 10908 10908 10908 10908 10909 10911 10917 10923 10928 10933 10935 10938 10942 10948 10951 10954 10957 10960 10962 10963 10965 10967 10969 10970 10970 10969 10970 10968 10968 10970 10972 10971 10972 10969 10968 10966 10966 10969 10972 10974 10977
10904 10904 10904 10901 10900 10900 10899 10898 10898 10897 10900 10906 10909 10916 10920 10924 10929 10935 10941 10944 10947 10952 10956 10955 10959 10962 10964 10967 10969 10969 10969 10969 10968 10971 10973 10973 10971 10969 10968 10967 10968 10969 10972 10974 10977
10896 10894 10895 10895 10893 10892 10892 10891 10891 10890 10889 10892 10894 10897 10904 10906 10913 10921 10927 10933 10937 10941 10946 10950 10954 10951 10958 10962 10964 10967 10967 10967 10968 10969 10971 10973 10972 10971 10969 10968 10968 10969 10971 10974 10977
10888 10885 10885 10887 10884 10882 10882 10882 10881 10882 10882 10883 10885 10886 10889 10890 10896 10904 10913 10920 10925 10931 10936 10942 10940 10941 10952 10955 10958 10961 10964 10965 10965 10966 10968 10971 10972 10971 10970 10969 10968 10969 10971 10973 10975
10877 10876 10872 10874 10873 10872 10871 10871 10872 10872 10874 10874 10875 10877 10878 10880 10882 10886 10894 10903 10913 10916 10922 10929 10931 10935 10942 10949 10951 10954 10956 10960 10961 10963 10964 10967 10969 10969 10970 10970 10968 10968 10970 10972 10973
10863 10862 10860 10860 10862 10861 10859 10858 10859 10860 10864 10869 10867 10864 10867 10868 10873 10873 10877 10888 10893 10900 10911 10917 10918 10923 10932 10936 10941 10945 10945 10951 10956 10958 10960 10962 10965 10965 10966 10967 10968 10968 10968 10970 10971
10848 10848 10847 10846 10843 10847 10846 10845 10847 10848 10854 10853 10856 10853 10854 10855 10860 10864 10865 10869 10876 10886 10896 10899 10903 10912 10920 10920 10930 10931 10935 10942 10948 10951 10955 10957 10960 10961 10963 10965 10966 10967 10967 10967 10968
10831 10831 10831 10827 10826 10828 10830 10831 10833 10839 10838 10838 10839 10838 10841 10845 10846 10850 10853 10857 10861 10868 10878 10879 10891 10896 10903 10908 10913 10919 10928 10934 10940 10945 10951 10951 10953 10957 10957 10962 10962 10963 10964 10964 10964
10813 10813 10810 10808 10804 10806 10812 10814 10822 10826 10820 10817 10822 10825 10826 10826 10834 10838 10840 10845 10848 10852 10857 10866 10878 10884 10889 10896 10902 10903 10913 10925 10931 10935 10938 10941 10946 10948 10950 10954 10957 10958 10958 10958 10959
10791 10789 10786 10787 10782 10781 10786 10797 10808 10802 10798 10801 10804 10807 10810 10812 10815 10821 10828 10832 10831 10836 10840 10848 10861 10859 10871 10877 10879 10895 10896 10915 10913 10919 10924 10933 10934 10933 10940 10947 10950 10951 10950 10952 10953
10765 10763 10761 10762 10757 10755 10760 10782 10777 10776 10776 10778 10785 10788 10789 10794 10796 10800 10809 10815 10818 10819 10822 10830 10837 10844 10850 10853 10866 10876 10886 10888 10905 10911 10919 10920 10924 10928 10930 10938 10941 10941 10941 10944 10947
10737 10732 10731 10728 10728 10726 10739 10750 10744 10748 10747 10758 10762 10765 10770 10772 10775 10782 10790 10795 10801 10804 10804 10811 10817 10825 10825 10850 10861 10863 10872 10876 10887 10895 10903 10908 10916 10917 10919 10927 10932 10929 10932 10934 10938
10701 10698 10698 10692 10691 10694 10704 10711 10710 10717 10717 10728 10732 10743 10745 10745 10752 10759 10770 10773 10778 10788 10791 10794 10796 10806 10820 10825 10831 10837 10848 10850 10857 10880 10893 10897 10904 10902 10903 10913 10920 10922 10922 10925 10928
10659 10656 10645 10658 10655 10652 10660 10669 10672 10679 10687 10690 10706 10710 10713 10717 10727 10737 10746 10751 10757 10771 10770 10774 10785 10789 10798 10805 10819 10829 10841 10848 10857 10861 10876 10882 10897 10890 10893 10900 10909 10914 10915 10916 10920
10608 10608 10592 10605 10608 10605 10608 10623 10628 10637 10648 10657 10670 10672 10680 10690 10699 10712 10721 10727 10735 10749 10749 10754 10764 10778 10788 10790 10785 10797 10811 10820 10827 10844 10860 10873 10875 10873 10881 10884 10891 10899 10901 10905 10909
10549 10552 10544 10545 10556 10551 10561 10576 10585 10597 10608 10618 10631 10637 10644 10653 10668 10684 10696 10701 10712 10727 10731 10737 10747 10755 10766 10766 10767 10780 10792 10802 10810 10828 10832 10852 10853 10863 10868 10870 10871 10882 10889 10892 10897
10484 10482 10484 10493 10491 10494 10502 10520 10532 10546 10555 10576 10594 10591 10601 10623 10636 10649 10662 10673 10690 10701 10713 10717 10731 10735 10746 10750 10754 10759 10771 10781 10793 10809 10818 10821 10837 10847 10848 10851 10859 10865 10870 10875 10882
10414 10420 10425 10424 10429 10438 10445 10454 10468 10483 10506 10527 10534 10566 10583 10580 10588 10613 10635 10651 10669 10679 10693 10700 10709 10716 10731 10731 10730 10733 10763 10773 10781 10792 10802 10810 10832 10820 10832 10847 10853 10845 10850 10857 10864